TimeCDT,TemperatureF,Dew PointF,Humidity,Sea Level PressureIn,VisibilityMPH,Wind Direction,Wind SpeedMPH,Gust SpeedMPH,PrecipitationIn,Events,Conditions,WindDirDegrees,DateUTC
12:53 AM,79.0,69.1,72,29.99,10.0,SSE,15.0,20.7,N/A,,Clear,150,2012-10-04 05:53:00
1:53 AM,78.1,69.1,74,29.99,10.0,SSE,16.1,21.9,N/A,,Clear,160,2012-10-04 06:53:00
2:53 AM,78.1,69.1,74,29.98,10.0,SSE,13.8,-,N/A,,Clear,160,2012-10-04 07:53:00
3:53 AM,75.9,69.1,79,29.98,10.0,SSE,12.7,-,N/A,,Clear,150,2012-10-04 08:53:00
4:53 AM,75.0,69.1,82,29.98,10.0,SE,10.4,-,N/A,,Clear,140,2012-10-04 09:53:00
5:53 AM,75.0,68.0,79,29.99,10.0,SSE,11.5,-,N/A,,Clear,150,2012-10-04 10:53:00
6:53 AM,75.0,66.9,76,30.00,10.0,SSE,13.8,-,N/A,,Clear,150,2012-10-04 11:53:00
7:53 AM,75.0,69.1,82,30.01,10.0,SSE,13.8,-,N/A,,Clear,160,2012-10-04 12:53:00
8:53 AM,78.1,68.0,71,30.03,10.0,SSE,17.3,-,N/A,,Clear,150,2012-10-04 13:53:00
9:53 AM,82.9,68.0,60,30.04,10.0,SSE,13.8,21.9,N/A,,Clear,160,2012-10-04 14:53:00
10:53 AM,86.0,64.9,49,30.04,10.0,SSE,17.3,25.3,N/A,,Clear,160,2012-10-04 15:53:00
11:53 AM,91.0,63.0,39,30.04,10.0,SSE,16.1,24.2,N/A,,Clear,160,2012-10-04 16:53:00
12:53 PM,95.0,61.0,32,30.03,10.0,SSE,16.1,21.9,N/A,,Clear,150,2012-10-04 17:53:00
1:53 PM,97.0,59.0,28,30.00,10.0,SSE,17.3,20.7,N/A,,Clear,160,2012-10-04 18:53:00
2:53 PM,99.0,57.0,25,29.99,10.0,SSE,17.3,21.9,N/A,,Clear,150,2012-10-04 19:53:00
3:53 PM,98.1,63.0,31,29.97,10.0,SSE,21.9,28.8,N/A,,Clear,150,2012-10-04 20:53:00
4:53 PM,95.0,66.0,38,29.99,10.0,SE,21.9,29.9,N/A,,Clear,140,2012-10-04 21:53:00
5:53 PM,91.0,64.0,41,30.00,10.0,SE,20.7,28.8,N/A,,Clear,140,2012-10-04 22:53:00
6:53 PM,87.1,63.0,44,30.01,10.0,SSE,17.3,27.6,N/A,,Clear,150,2012-10-04 23:53:00
7:53 PM,84.2,66.2,55,30.03,10.0,SSE,12.7,-,N/A,,Clear,150,2012-10-05 00:53:00
8:53 PM,81.0,68.0,65,30.05,10.0,SE,13.8,21.9,N/A,,Clear,140,2012-10-05 01:53:00
9:53 PM,80.1,69.1,69,30.06,10.0,SE,16.1,21.9,N/A,,Clear,140,2012-10-05 02:53:00
10:53 PM,79.0,68.0,69,30.07,10.0,SSE,8.1,-,N/A,,Clear,150,2012-10-05 03:53:00
11:53 PM,77.0,68.0,74,30.07,10.0,SSE,9.2,-,N/A,,Clear,150,2012-10-05 04:53:00